Espaço - Ciências - Fenômenos Naturais
Meteógrafos Informações Meteorológicas em tempo real

Aeroporto de Petrolina

Histórico do Tempo
Temperatura atual: 24 graus 75 F    Umidade relativa: 73 %
Velocidade do vento: 09 nós 16 Km/h    Direção: 160 graus SSE
Ajuste do altímetro ..: 1016 HPA
Visibilidade: Ótima    Tempo presente: Céu Limpo

Observação

Data Hora BRTTempo°CUmidadePressãoVentoVisib.
24/05 - 07:56   Céu Limpo 24° 73% 1016 Sul-sudeste/16 km/h OK
24/05 - 06:56   Céu Limpo 23° 83% 1015 Sul-sudeste/9 km/h OK
24/05 - 05:56   Céu Limpo 23° 78% 1015 Sul/5 km/h OK
24/05 - 04:56   Céu Limpo 23° 73% 1014 Sul/7 km/h OK
24/05 - 03:56   Céu Limpo 24° 73% 1014 Este-sudeste/12 km/h OK
24/05 - 02:56   Céu Limpo 25° 61% 1014 Sul-sudeste/7 km/h OK
24/05 - 01:56   Céu Limpo 26° 61% 1014 Sudeste/12 km/h OK
24/05 - 00:56   Céu Limpo 26° 57% 1014 Sudeste/14 km/h OK
23/05 - 23:56   Céu Limpo 27° 54% 1014 Sul-sudeste/14 km/h OK
23/05 - 22:56   Céu Limpo 28° 48% 1014 Este-sudeste/10 km/h OK
23/05 - 21:56   Céu Limpo 28° 48% 1013 Sul-sudeste/10 km/h OK
23/05 - 20:56   Céu Limpo 29° 45% 1013 Sudeste/9 km/h OK
23/05 - 19:56   Céu Limpo 30° 40% 1013 Sudeste/9 km/h OK
23/05 - 18:56   Não Disponível 31° 38% 1012 Sudeste/12 km/h OK
23/05 - 17:56   Não Disponível 33° 34% 1012 Sudeste/18 km/h OK
23/05 - 16:56   Não Disponível 33° 31% 1012 Sul-sudeste/14 km/h OK
23/05 - 15:56   Não Disponível 33° 31% 1012 Sudeste/14 km/h OK
23/05 - 14:56   Não Disponível 34° 30% 1013 Sul-sudoeste/10 km/h OK
23/05 - 13:56   Não Disponível 33° 36% 1014 Este-sudeste/10 km/h OK
23/05 - 12:56   Não Disponível 32° 43% 1015 Sul-sudeste/14 km/h OK
23/05 - 11:56   Não Disponível 30° 48% 1016 Sul-sudeste/14 km/h OK
23/05 - 10:56   Não Disponível 28° 58% 1017 Sudeste/16 km/h OK
23/05 - 09:56   Não Disponível 26° 69% 1017 Sudeste/16 km/h OK
23/05 - 08:56   Poucas nuvens esparsas 25° 73% 1017 Sudeste/16 km/h OK


Apolo11.com - Todos os direitos reservados - 2000 - 2019
Política de Privacidade   |     Termo de Uso e Licenciamento   |  -   Entre em Contato

"Política é a guerra sem sangue enquanto a guerra é a política com sangue" - Mao Tsé-Tung